Temp
85 91 95 96 70 69 78 80 88 83 83 91 93 89 84 86 74 61 93 100 94 90 84 83 80 81 80 80 80 80 79 79 80 80 80 80 80 80 80 80 81 82 82 82 82 81 81 81 81
97 100 99 82 60 57 77 86 83 86 90 93 92 91 85 80 90 90 92 99 96 91 86 84 80 80 80 80 80 80 79 79 79 80 80 80 80 80 80 80 81 82 82 82 82 82 81 81 81
89 100 89 79 62 75 77 87 87 91 95 92 88 93 88 84 93 93 97 100 98 93 91 83 80 80 80 80 80 80 80 80 80 80 80 80 80 80 80 80 81 81 82 82 81 81 81 80 80
99 100 87 72 78 85 86 90 91 90 93 95 91 83 92 98 94 96 99 101 98 98 94 80 79 80 80 80 80 80 80 80 80 80 80 80 80 80 80 80 81 81 82 82 81 81 81 80 79
100 98 72 68 80 88 87 91 89 90 90 91 91 83 85 94 98 98 98 100 99 98 90 84 79 80 80 80 80 80 80 80 80 80 80 80 80 80 80 80 80 81 81 82 82 81 80 80 79
94 97 74 70 72 81 89 86 80 90 93 92 89 86 86 97 96 97 100 100 101 98 92 83 80 80 80 80 80 80 80 79 79 79 79 79 79 78 79 79 79 80 80 81 81 80 80 79 79
94 82 78 82 81 83 83 91 85 92 92 89 94 83 89 94 98 99 100 101 101 100 90 88 85 81 80 80 80 80 79 79 79 79 79 79 78 78 78 78 77 79 79 79 80 80 79 79 79
100 92 84 84 78 82 88 87 90 81 80 95 98 84 84 93 100 101 101 100 97 98 100 92 89 86 82 83 79 80 78 79 79 79 78 78 78 78 73 74 74 75 79 79 79 79 79 78 78
106 85 75 82 83 83 95 79 83 80 78 88 93 95 96 99 101 98 78 70 68 74 78 98 96 93 91 86 82 77 79 79 79 79 77 75 72 75 77 74 71 76 77 76 78 78 78 77 77
97 87 88 95 92 86 78 84 83 74 75 78 84 97 98 98 83 73 75 67 66 66 74 94 92 91 93 88 82 78 82 79 79 78 76 75 73 73 77 77 74 75 75 73 76 78 77 77 76
98 89 96 97 95 91 83 74 76 80 73 78 78 92 95 82 75 67 66 68 70 73 87 90 88 86 86 87 87 85 80 80 79 77 72 75 74 76 78 80 82 79 77 72 75 75 76 76 76
92 98 98 98 92 85 78 81 78 92 81 86 88 97 86 77 73 71 71 68 72 86 86 89 87 84 83 85 85 85 84 80 78 77 76 75 78 76 77 77 76 80 77 66 67 67 72 73 76
95 93 98 97 89 82 83 79 70 92 95 94 98 86 79 83 82 83 85 87 85 84 85 87 85 83 82 83 83 83 83 74 81 78 75 74 76 77 76 73 75 79 78 68 65 66 67 71 71
97 91 93 91 88 91 85 88 92 93 97 94 92 90 87 85 85 86 85 84 83 82 83 86 85 83 84 82 81 83 83 84 84 77 70 71 73 73 71 71 68 69 75 69 67 69 72 73 73
94 86 89 88 84 72 84 83 85 93 94 89 88 88 88 87 87 83 83 82 82 82 82 81 83 84 81 82 82 82 84 80 74 71 68 71 73 73 73 70 69 69 73 71 70 69 68 66 66
89 86 75 85 89 84 88 73 84 93 90 86 87 86 85 85 85 82 84 83 82 81 80 81 82 81 80 81 82 84 81 75 71 72 73 75 74 71 73 71 69 71 71 71 69 66 65 64 62
83 72 69 81 89 86 86 78 79 92 89 85 85 84 84 82 81 80 84 84 82 80 78 77 77 76 77 78 80 80 80 79 74 75 75 73 73 74 72 69 69 71 69 68 67 66 64 63 63
77 76 75 82 85 89 84 82 88 90 89 85 81 75 84 81 81 84 84 83 81 79 77 77 76 73 73 77 76 77 79 78 77 75 74 73 72 71 70 70 69 70 69 68 67 65 66 65 64
89 83 80 84 90 87 83 82 84 81 74 85 84 84 82 82 84 85 83 82 80 78 76 74 73 71 72 74 73 73 73 75 73 72 71 71 71 70 67 68 68 67 67 66 66 65 64 66 68
88 81 76 82 89 86 82 65 68 67 64 85 83 80 78 81 82 82 82 82 79 77 74 73 72 71 71 72 71 71 72 74 74 73 71 71 70 70 69 66 65 64 64 64 63 62 62 63 64
84 82 81 81 84 76 66 57 59 63 68 69 86 84 85 83 80 81 81 81 82 75 74 73 72 72 71 70 71 70 70 70 70 70 70 70 71 71 66 64 63 63 64 63 61 61 59 59 62
80 89 87 80 75 53 66 55 57 60 54 58 81 84 84 83 83 83 82 81 80 80 77 75 73 71 71 70 68 65 65 65 67 68 69 70 70 67 66 65 64 64 63 61 61 63 60 60 58
84 90 82 76 69 66 63 62 65 63 61 65 80 83 84 85 85 84 84 82 82 81 80 76 74 71 71 70 67 66 64 67 68 68 66 65 65 64 67 65 64 63 64 63 61 61 60 60 57
92 84 81 74 72 52 60 62 52 62 63 62 81 83 84 86 86 85 84 84 81 81 80 77 73 69 70 70 68 65 63 64 62 64 64 65 66 66 64 65 63 62 61 60 60 60 60 60 58
88 80 68 61 63 58 68 61 67 73 73 79 81 83 85 86 85 84 82 81 79 79 78 78 71 69 70 70 66 64 63 63 62 62 63 62 64 64 61 62 61 62 61 61 61 59 59 59 57
82 80 69 57 61 62 65 61 59 82 84 84 84 84 85 84 85 84 81 80 80 79 78 77 72 70 70 69 65 65 64 65 64 63 63 64 63 63 62 62 63 62 62 62 61 60 61 59 58
81 75 84 72 74 63 65 58 73 79 81 82 82 82 81 82 83 83 82 80 79 79 76 75 73 72 71 69 66 65 65 64 64 62 62 64 64 63 63 63 62 62 61 61 59 60 59 59 58
85 88 73 75 61 59 62 59 64 70 76 79 80 80 80 83 84 83 81 79 79 79 77 76 76 73 71 68 68 66 65 66 63 64 63 63 62 63 62 61 60 60 59 60 59 59 59 57 57
82 79 79 77 73 63 61 65 80 77 78 79 81 82 82 83 84 83 82 80 79 79 79 75 74 73 72 68 68 66 65 65 65 64 65 64 63 62 61 61 59 59 59 59 58 58 58 57 56
86 80 78 67 65 71 68 54 80 83 83 82 81 82 82 83 83 84 83 80 77 76 76 74 72 73 72 68 68 66 67 64 64 64 65 64 63 63 61 61 60 60 59 58 57 57 57 56 55
MSLP
1009.06 1008.63 1007.84 1007.22 1008.23 1007.38 1003.74 1003.52 1003.54 1003.95 1004.48 1004.94 1005.13 1005.36 1006.57 1007.21 1008.38 1010.31 1009.91 1009.92 1011.00 1012.52 1013.86 1014.40 1014.86 1015.12 1015.37 1015.63 1015.88 1016.09 1016.27 1016.42 1016.57 1016.70 1016.80 1016.82 1016.83 1016.91 1016.94 1016.90 1016.82 1016.71 1016.52 1016.42 1016.36 1016.34 1016.25 1016.13 1015.99
1008.03 1007.31 1006.76 1008.13 1009.30 1007.50 1003.95 1003.38 1003.53 1003.75 1004.52 1004.92 1005.11 1005.66 1006.91 1007.80 1008.32 1009.12 1009.91 1010.07 1010.84 1012.41 1013.51 1014.04 1014.64 1014.94 1015.26 1015.51 1015.77 1016.09 1016.26 1016.47 1016.62 1016.74 1016.80 1016.74 1016.69 1016.69 1016.75 1016.83 1016.88 1016.78 1016.66 1016.54 1016.45 1016.29 1016.28 1016.22 1016.20
1008.70 1007.31 1007.07 1007.29 1007.58 1004.99 1003.44 1003.26 1003.60 1004.11 1004.18 1005.09 1005.88 1006.35 1007.04 1007.81 1008.41 1009.03 1009.83 1009.89 1010.56 1011.73 1012.60 1013.57 1014.31 1014.75 1015.18 1015.62 1015.94 1016.11 1016.28 1016.41 1016.53 1016.74 1016.81 1016.81 1016.75 1016.76 1016.82 1016.81 1016.81 1016.74 1016.70 1016.65 1016.65 1016.57 1016.43 1016.35 1016.25
1006.82 1006.09 1007.05 1007.22 1004.88 1003.93 1003.41 1003.43 1003.74 1004.12 1004.86 1005.23 1006.24 1006.94 1007.63 1007.68 1008.32 1009.17 1009.56 1009.72 1010.29 1010.74 1011.89 1013.55 1014.17 1014.69 1015.13 1015.43 1015.72 1015.89 1016.05 1016.22 1016.43 1016.56 1016.73 1016.85 1016.89 1016.85 1016.80 1016.84 1016.84 1016.81 1016.80 1016.80 1016.65 1016.62 1016.57 1016.49 1016.30
1005.83 1004.77 1006.39 1006.48 1004.31 1003.78 1004.50 1004.75 1004.63 1004.44 1005.09 1006.03 1006.75 1007.31 1007.84 1008.39 1008.82 1009.39 1009.82 1009.94 1010.05 1010.69 1012.54 1013.99 1014.63 1014.92 1015.17 1015.38 1015.46 1015.56 1015.69 1015.91 1016.07 1016.20 1016.24 1016.52 1016.76 1016.81 1016.93 1016.97 1016.92 1016.76 1016.70 1016.67 1016.63 1016.61 1016.64 1016.66 1016.54
1004.23 1004.07 1005.46 1005.31 1005.61 1004.57 1004.86 1005.92 1006.77 1004.91 1005.18 1005.89 1006.49 1007.28 1008.13 1008.80 1009.29 1009.84 1010.15 1010.42 1010.58 1011.12 1012.56 1014.23 1014.85 1014.98 1014.92 1014.84 1014.99 1015.19 1015.49 1015.63 1015.78 1015.87 1015.89 1015.91 1016.47 1016.86 1016.85 1016.86 1016.74 1016.71 1016.65 1016.64 1016.59 1016.61 1016.61 1016.62 1016.51
1002.98 1003.30 1004.87 1004.34 1004.45 1004.50 1005.29 1005.61 1006.86 1005.83 1006.11 1006.73 1006.51 1007.32 1008.17 1008.60 1009.42 1010.07 1010.45 1010.90 1010.95 1011.22 1012.55 1013.45 1014.18 1014.60 1014.44 1014.33 1014.79 1015.60 1015.83 1015.88 1015.60 1015.74 1015.87 1015.55 1016.15 1016.71 1016.72 1016.72 1016.74 1016.61 1016.28 1016.18 1016.25 1016.45 1016.41 1016.36 1016.27
1001.92 1002.88 1003.15 1003.90 1004.25 1004.28 1005.58 1006.58 1006.16 1008.20 1009.30 1006.59 1006.35 1007.11 1007.97 1008.81 1009.37 1009.85 1010.49 1011.56 1012.22 1011.42 1011.05 1012.12 1012.91 1013.32 1013.64 1014.41 1014.73 1015.74 1016.02 1015.74 1015.50 1015.40 1015.76 1015.65 1015.69 1016.27 1016.54 1016.29 1015.57 1015.93 1015.81 1015.77 1015.67 1015.70 1015.98 1016.02 1015.97
1001.77 1002.53 1004.16 1003.46 1003.87 1005.00 1005.39 1007.72 1007.89 1008.36 1009.41 1008.01 1007.66 1007.26 1008.38 1009.04 1009.16 1009.85 1013.17 1015.77 1016.57 1013.99 1013.07 1011.45 1011.98 1012.74 1012.97 1013.90 1014.63 1014.90 1015.04 1015.71 1015.45 1015.38 1015.37 1015.17 1015.32 1015.89 1015.68 1015.59 1015.00 1014.48 1014.69 1015.94 1015.93 1015.46 1015.24 1015.43 1015.63
1001.32 1001.92 1001.72 1002.38 1003.34 1005.52 1009.03 1009.21 1009.52 1009.85 1010.22 1009.71 1008.25 1008.23 1009.06 1009.50 1011.22 1013.54 1014.03 1017.26 1018.83 1017.35 1014.95 1013.15 1012.82 1013.14 1013.03 1013.74 1014.50 1014.77 1014.71 1014.48 1014.54 1014.81 1015.06 1014.85 1014.78 1015.45 1015.15 1014.49 1014.72 1013.88 1014.33 1015.25 1015.71 1015.43 1014.83 1015.03 1015.19
1001.05 1001.31 1001.76 1002.51 1004.22 1005.80 1007.45 1010.15 1010.10 1009.72 1010.37 1010.47 1009.14 1008.49 1009.19 1010.86 1012.39 1014.94 1017.06 1016.94 1016.57 1017.05 1014.01 1013.93 1013.78 1013.98 1014.03 1013.99 1013.76 1013.81 1014.09 1014.17 1014.40 1014.60 1014.50 1014.55 1014.78 1014.99 1014.62 1013.93 1013.11 1012.68 1013.57 1014.93 1015.32 1015.26 1014.78 1014.46 1014.69
1001.46 1001.78 1002.53 1003.18 1004.86 1006.05 1008.57 1009.74 1010.67 1007.23 1008.25 1008.52 1009.04 1008.49 1010.89 1011.15 1013.15 1014.56 1016.15 1016.90 1016.05 1015.09 1014.82 1014.44 1014.43 1014.23 1014.49 1014.25 1013.95 1013.56 1013.18 1013.73 1014.13 1014.15 1014.27 1013.93 1014.02 1014.06 1014.01 1013.58 1013.31 1011.95 1013.03 1014.22 1014.03 1013.54 1013.38 1014.03 1014.05
1001.78 1002.54 1002.81 1003.91 1006.07 1007.55 1008.46 1009.02 1010.41 1006.08 1006.88 1008.00 1007.91 1009.94 1011.39 1012.98 1013.24 1013.79 1014.48 1014.40 1014.70 1014.85 1014.56 1014.20 1014.20 1014.69 1014.73 1014.47 1014.25 1013.60 1013.10 1013.74 1013.72 1013.97 1013.37 1012.65 1012.79 1013.53 1013.56 1013.73 1013.54 1011.69 1012.63 1013.84 1014.41 1014.40 1014.25 1014.32 1013.30
1003.20 1003.69 1004.23 1005.10 1006.78 1007.49 1007.45 1007.27 1006.63 1006.47 1006.81 1007.95 1008.82 1010.11 1011.47 1012.51 1012.92 1013.34 1013.96 1014.62 1014.70 1014.97 1014.80 1014.75 1014.91 1014.84 1014.78 1014.56 1014.18 1013.45 1013.14 1013.19 1013.22 1014.39 1014.75 1014.57 1014.60 1013.39 1014.00 1014.44 1014.54 1013.66 1013.22 1013.96 1015.05 1014.87 1013.68 1014.24 1013.64
1004.08 1004.33 1005.12 1006.80 1006.84 1008.04 1007.49 1007.64 1007.22 1007.18 1007.69 1008.77 1010.04 1010.73 1011.62 1012.50 1013.29 1014.05 1014.80 1015.40 1015.70 1015.76 1015.83 1015.54 1015.11 1014.98 1015.09 1014.77 1014.12 1013.42 1013.31 1014.30 1014.94 1014.79 1014.65 1014.83 1013.84 1014.01 1014.30 1014.44 1014.75 1014.12 1013.53 1014.22 1014.73 1014.46 1014.49 1014.35 1015.09
1005.08 1006.51 1007.14 1006.66 1006.15 1007.31 1007.15 1007.80 1007.90 1007.71 1008.30 1009.71 1010.93 1011.38 1012.35 1013.10 1013.82 1014.74 1015.16 1015.56 1015.78 1016.06 1016.05 1016.05 1016.05 1015.83 1015.57 1015.08 1014.25 1013.75 1014.09 1014.61 1015.70 1015.63 1015.81 1015.03 1014.71 1014.89 1014.74 1015.03 1015.01 1014.51 1014.09 1013.83 1014.28 1014.62 1014.73 1014.90 1015.09
1005.19 1006.29 1007.20 1006.59 1006.06 1006.54 1006.80 1007.69 1008.47 1007.84 1008.57 1009.84 1011.09 1011.97 1012.61 1013.39 1014.36 1014.98 1014.93 1015.57 1016.03 1016.48 1016.71 1016.88 1016.88 1016.79 1016.42 1015.45 1014.95 1014.49 1014.19 1014.84 1015.52 1015.85 1015.79 1015.44 1015.34 1015.40 1015.27 1015.16 1015.04 1014.83 1014.54 1014.43 1014.31 1014.27 1014.36 1014.26 1014.33
1004.18 1005.43 1006.18 1005.02 1006.41 1005.57 1006.88 1007.77 1008.40 1008.25 1008.57 1009.49 1011.16 1012.36 1013.04 1014.11 1014.68 1015.02 1015.40 1016.09 1016.79 1017.30 1017.65 1017.77 1017.93 1017.93 1017.33 1016.55 1016.19 1015.75 1015.11 1014.62 1014.61 1014.98 1015.22 1015.58 1015.93 1016.02 1015.81 1015.63 1015.47 1015.24 1014.88 1014.64 1014.50 1014.35 1014.00 1014.00 1013.81
1003.20 1004.30 1004.72 1005.48 1005.74 1006.11 1007.63 1008.94 1009.79 1011.20 1011.56 1010.15 1011.03 1011.92 1013.28 1014.18 1014.93 1015.23 1016.04 1016.74 1017.40 1017.87 1018.29 1018.64 1018.69 1018.72 1018.31 1017.60 1017.40 1016.99 1016.39 1015.75 1015.62 1015.84 1016.20 1016.19 1016.40 1016.37 1016.17 1016.15 1015.93 1015.79 1015.52 1015.26 1015.00 1014.84 1014.51 1014.02 1013.73
1003.66 1004.70 1005.50 1006.19 1006.06 1007.02 1008.00 1012.80 1012.99 1013.42 1013.05 1011.54 1011.69 1011.67 1013.35 1014.52 1015.08 1015.75 1016.24 1016.77 1017.38 1018.01 1018.65 1019.03 1019.19 1019.16 1019.10 1018.75 1018.49 1018.09 1017.43 1016.84 1016.58 1016.48 1016.49 1016.43 1016.55 1016.48 1016.55 1016.80 1016.87 1016.63 1016.34 1016.12 1015.88 1015.64 1015.23 1014.80 1014.54
1004.34 1004.69 1005.38 1005.89 1007.23 1009.93 1012.47 1015.28 1016.97 1017.00 1016.22 1016.34 1012.60 1010.64 1012.54 1014.12 1015.22 1015.78 1016.18 1016.63 1017.22 1018.08 1018.59 1019.11 1019.41 1019.54 1019.63 1019.52 1019.23 1018.76 1018.25 1017.60 1017.47 1017.40 1017.21 1016.82 1016.67 1016.74 1016.95 1017.11 1017.22 1017.10 1016.88 1016.64 1016.47 1016.13 1015.94 1015.38 1014.85
1003.99 1004.99 1005.77 1006.79 1008.37 1012.72 1015.30 1017.22 1018.76 1019.22 1018.98 1016.56 1013.51 1013.29 1013.65 1014.24 1014.95 1015.33 1015.87 1016.57 1017.24 1017.80 1018.41 1019.03 1019.49 1019.74 1019.84 1019.85 1019.67 1019.55 1019.20 1018.66 1018.46 1018.14 1017.76 1017.20 1016.77 1017.38 1017.40 1017.42 1017.13 1017.02 1016.95 1016.76 1016.57 1016.29 1016.09 1015.82 1015.36
1004.55 1005.27 1006.74 1008.63 1010.93 1013.24 1014.76 1015.19 1015.63 1017.28 1017.45 1015.32 1013.77 1013.70 1013.73 1014.19 1014.53 1015.13 1015.81 1016.54 1017.20 1017.88 1018.34 1018.91 1019.45 1019.88 1020.12 1020.12 1020.15 1020.06 1019.91 1019.41 1018.97 1018.80 1018.32 1018.27 1018.14 1017.93 1017.63 1017.62 1017.47 1017.32 1017.12 1016.87 1016.64 1016.27 1015.98 1015.77 1015.67
1004.93 1005.77 1006.59 1008.34 1010.68 1012.78 1011.84 1014.31 1015.29 1015.61 1015.01 1014.15 1013.34 1013.33 1013.53 1013.57 1014.29 1015.10 1016.02 1016.68 1017.35 1018.08 1018.53 1018.80 1019.44 1020.15 1020.27 1020.21 1020.35 1020.55 1020.59 1020.10 1020.04 1019.58 1019.25 1018.91 1018.54 1018.26 1018.25 1018.09 1017.85 1017.48 1017.31 1017.09 1016.76 1016.43 1016.07 1015.79 1015.53
1005.03 1005.25 1006.34 1008.53 1009.02 1009.77 1011.69 1013.34 1012.86 1013.21 1013.44 1012.69 1012.56 1012.99 1013.29 1013.68 1014.48 1015.27 1016.22 1016.99 1017.54 1018.13 1018.62 1018.90 1019.75 1020.26 1020.33 1020.38 1020.78 1021.05 1020.95 1020.67 1020.46 1020.30 1019.91 1019.69 1019.20 1018.87 1018.81 1018.45 1018.12 1017.76 1017.36 1017.05 1016.74 1016.48 1016.18 1015.92 1015.67
1005.08 1005.21 1006.08 1007.27 1008.04 1009.58 1010.57 1012.84 1013.78 1012.18 1012.40 1012.48 1012.56 1013.21 1013.71 1014.31 1014.94 1015.58 1016.49 1017.35 1017.75 1018.14 1018.64 1019.11 1019.76 1020.28 1020.37 1020.52 1021.15 1021.27 1021.31 1021.12 1020.95 1020.73 1020.44 1019.97 1019.70 1019.30 1018.98 1018.57 1018.13 1017.89 1017.42 1017.08 1016.76 1016.46 1016.26 1016.06 1015.71
1005.35 1005.50 1006.19 1006.85 1006.83 1008.56 1011.44 1013.78 1012.90 1012.60 1012.12 1012.14 1012.64 1013.40 1014.13 1014.51 1014.95 1015.66 1016.58 1017.56 1018.02 1018.32 1018.81 1019.34 1019.78 1020.20 1020.44 1020.77 1021.19 1021.35 1021.42 1021.42 1021.17 1020.86 1020.53 1020.21 1019.81 1019.53 1019.17 1018.86 1018.58 1018.12 1017.85 1017.43 1017.24 1016.84 1016.47 1016.09 1015.68
1005.57 1005.99 1005.94 1006.44 1007.07 1008.03 1010.14 1012.09 1011.52 1011.77 1011.58 1011.99 1012.49 1013.10 1014.08 1014.38 1014.86 1015.73 1016.69 1017.64 1018.32 1018.64 1018.98 1019.48 1019.84 1020.19 1020.49 1021.06 1021.31 1021.43 1021.58 1021.43 1021.22 1020.94 1020.57 1020.30 1020.04 1019.76 1019.57 1019.29 1019.07 1018.66 1018.31 1017.79 1017.51 1017.11 1016.72 1016.32 1015.92
1005.54 1005.60 1006.51 1007.20 1007.88 1008.51 1008.94 1009.95 1009.74 1010.49 1011.35 1011.81 1012.30 1013.10 1013.89 1014.27 1015.09 1015.80 1016.74 1017.70 1018.60 1019.09 1019.41 1019.87 1020.22 1020.40 1020.62 1021.27 1021.51 1021.66 1021.63 1021.43 1021.23 1021.03 1020.72 1020.48 1020.21 1020.03 1019.81 1019.53 1019.34 1019.08 1018.60 1018.26 1017.89 1017.48 1017.08 1016.72 1016.32
1006.45 1006.64 1007.24 1008.09 1008.54 1008.79 1009.39 1012.13 1010.63 1010.49 1011.31 1011.99 1012.67 1013.47 1014.35 1014.84 1015.42 1016.02 1016.88 1017.88 1018.82 1019.40 1019.86 1020.11 1020.57 1020.71 1020.77 1021.39 1021.46 1021.52 1021.57 1021.49 1021.34 1021.05 1020.82 1020.55 1020.43 1020.14 1020.07 1019.82 1019.62 1019.32 1019.12 1018.71 1018.33 1017.89 1017.56 1017.28 1016.95
Wind_Speed
7 10 10 6 2 6 17 18 18 17 16 14 9 15 19 18 11 7 7 10 24 19 15 14 13 11 10 8 6 4 3 2 2 2 2 2 3 3 3 3 3 4 5 5 6 6 7 7 8
7 12 3 7 2 6 13 18 17 15 14 10 9 15 18 19 17 16 10 11 22 18 14 14 14 12 11 9 7 6 4 2 1 1 1 2 2 2 1 1 3 3 3 3 3 5 5 6 8
10 12 4 6 5 11 13 19 19 15 15 20 19 19 14 15 18 12 13 14 18 17 15 15 16 13 11 8 6 5 4 3 2 2 2 3 2 2 1 1 2 2 2 2 1 2 3 4 6
8 5 3 4 10 11 17 14 23 19 18 21 18 13 15 13 16 14 15 15 14 18 17 18 17 13 11 9 7 6 5 4 3 3 3 4 4 4 4 4 4 4 4 4 2 2 0 2 3
13 8 5 11 10 20 21 21 21 19 20 19 18 18 16 15 15 14 10 10 10 17 17 15 14 12 11 9 8 7 6 5 4 4 3 5 6 6 6 6 7 7 7 6 5 4 2 1 2
10 3 3 10 2 22 21 21 14 9 20 20 18 17 14 14 13 12 10 7 6 14 16 15 14 13 13 13 11 10 8 7 5 4 4 2 7 8 7 8 9 10 9 9 7 5 3 2 2
16 4 15 15 8 21 20 24 7 14 19 15 18 16 12 15 13 12 10 8 7 11 17 14 13 13 16 15 13 8 7 7 6 5 6 3 6 9 8 9 13 14 13 11 9 6 5 6 4
7 8 11 8 11 11 25 14 27 28 26 18 15 11 13 14 14 12 11 8 14 3 11 15 15 15 13 12 15 7 12 9 8 6 2 7 8 7 3 9 11 16 19 16 12 11 10 9 8
9 11 7 9 12 3 6 27 20 26 22 10 13 16 15 15 12 13 29 33 27 29 27 9 9 5 4 12 13 13 12 8 2 1 2 5 2 6 8 5 3 13 28 26 13 14 14 12 11
6 3 8 12 16 10 29 17 8 8 9 4 9 17 15 14 28 27 21 14 7 17 20 9 13 10 11 8 9 9 7 3 2 1 2 4 3 5 8 8 19 27 28 11 21 17 15 12 6
5 9 10 12 21 28 15 24 13 21 12 14 16 17 14 20 29 22 1 7 14 21 9 13 12 10 11 8 5 3 3 3 1 4 6 4 5 7 5 7 9 9 18 8 10 5 7 10 8
12 8 7 15 23 27 25 16 17 5 21 26 21 14 24 18 19 14 9 11 6 12 10 12 12 9 7 5 5 2 0 3 3 6 7 7 5 5 5 5 8 5 6 7 8 7 5 8 11
7 24 3 21 24 28 20 10 27 10 25 20 18 23 25 13 16 7 10 14 14 12 11 13 11 8 7 5 5 5 5 3 7 6 13 9 0 4 6 7 7 6 3 5 4 3 4 11 6
14 17 18 20 19 17 15 8 12 15 18 23 18 17 19 17 17 14 16 16 14 13 14 11 10 7 9 6 8 7 4 3 3 10 13 20 11 5 7 6 8 14 6 4 6 6 4 10 8
16 19 19 14 21 13 17 10 13 17 17 19 16 15 16 16 16 14 15 13 13 12 11 13 10 12 10 7 8 7 7 14 14 5 3 10 7 7 7 6 4 6 6 5 1 7 9 10 10
10 8 6 9 13 2 1 5 3 16 18 18 10 15 15 17 17 17 11 11 12 12 11 11 13 14 14 9 8 9 7 7 4 7 7 14 14 12 10 7 7 7 7 6 4 2 3 4 3
8 10 17 5 11 13 11 12 13 19 16 15 15 12 15 16 14 9 9 16 13 15 16 15 16 17 17 10 10 12 9 9 5 5 6 10 13 14 11 8 5 6 3 5 5 4 1 4 4
13 9 24 7 15 11 13 13 9 13 16 18 20 1 18 15 11 9 16 16 16 14 14 14 12 15 16 10 10 11 11 6 5 7 9 14 10 12 10 10 10 10 8 5 4 6 5 4 6
13 11 12 17 3 9 13 11 15 19 9 19 14 14 11 11 16 12 15 14 13 11 12 13 13 13 12 10 11 10 11 9 6 9 11 9 9 9 7 8 9 10 10 10 8 6 8 8 8
12 12 4 11 3 8 4 27 17 24 26 14 14 18 13 12 14 13 12 11 10 10 12 12 12 12 12 11 10 10 10 9 9 5 7 7 7 6 8 8 9 10 9 10 10 10 6 6 7
6 10 4 10 15 22 23 26 14 13 14 31 8 11 17 15 13 11 10 10 12 12 12 11 11 11 11 12 9 9 9 7 8 9 8 8 5 7 7 7 5 7 7 6 7 7 8 7 6
3 11 13 23 12 5 8 4 9 9 10 32 8 12 14 14 11 10 11 11 11 10 11 11 10 10 10 11 10 12 9 8 8 8 7 7 6 10 9 7 4 5 4 4 4 6 6 5 7
13 11 18 22 16 8 11 12 11 18 13 13 11 11 12 10 10 12 13 12 12 11 10 9 9 11 12 10 10 9 10 8 6 8 10 12 8 7 8 10 9 7 5 6 6 6 6 3 4
13 9 2 6 5 3 19 9 5 7 11 11 11 10 8 11 12 13 13 12 12 12 10 8 12 12 9 9 9 11 13 11 9 10 9 10 9 9 12 11 8 7 7 8 7 8 8 7 5
9 14 3 2 6 3 7 7 7 14 17 10 13 11 8 13 13 11 13 12 11 9 8 8 13 10 9 9 13 11 11 11 11 10 8 8 8 7 9 9 9 8 9 10 8 8 6 7 7
13 7 7 12 12 5 18 8 7 13 13 12 13 11 12 11 10 10 14 11 9 9 9 10 10 8 8 9 11 9 10 7 7 8 7 7 7 8 9 9 9 10 10 9 9 6 8 8 6
8 10 9 8 16 6 8 5 5 4 11 12 11 11 10 7 9 11 14 11 9 9 11 10 8 7 8 10 7 7 7 8 7 7 7 6 7 8 10 10 11 10 10 10 10 8 7 8 8
7 5 7 6 7 12 8 8 5 10 9 10 9 10 9 2 11 11 12 10 9 9 9 10 11 10 10 11 7 7 6 6 6 6 8 8 8 10 9 10 9 10 11 10 10 9 9 8 7
7 4 6 6 5 7 7 9 11 10 12 6 11 8 8 9 10 11 12 11 10 11 11 10 10 11 9 8 8 6 6 7 6 5 7 9 8 9 10 9 9 9 10 11 9 9 10 11 10
4 6 8 6 11 9 8 1 10 11 10 7 9 10 11 4 8 11 11 10 10 8 9 10 9 9 8 7 7 7 6 6 7 6 8 8 9 7 8 9 8 8 10 10 11 11 10 10 11
Wind_Direction
242 237 237 358 201 295 77 75 72 66 67 67 72 62 65 52 132 165 149 112 112 120 130 144 147 151 153 153 156 151 138 124 112 99 90 74 62 48 38 31 31 40 58 61 55 45 44 43 34
257 271 270 74 35 271 84 86 62 102 116 104 130 90 76 75 87 117 112 128 111 126 149 144 157 158 163 165 166 167 158 164 167 166 175 170 165 136 96 26 359 0 21 50 61 64 55 47 28
260 260 255 188 190 70 90 93 95 73 97 90 69 52 94 88 106 107 134 136 118 134 158 143 160 163 164 163 169 168 174 181 191 243 250 238 227 212 221 253 283 300 312 335 9 53 70 53 32
252 167 337 221 162 80 87 80 107 107 74 99 106 84 73 68 109 123 146 138 158 145 135 149 156 159 161 163 172 178 189 194 211 234 253 267 270 265 256 262 271 273 279 280 267 253 154 71 40
239 257 82 253 47 83 65 45 21 96 93 98 97 100 99 99 110 128 143 147 156 129 126 143 145 152 162 172 181 186 193 199 210 227 253 290 290 283 282 282 277 268 263 256 255 250 227 183 353
282 136 280 122 45 91 94 68 83 122 114 107 102 104 106 123 125 135 153 144 135 118 126 135 150 163 173 183 189 190 194 200 211 226 232 266 290 293 292 279 275 271 268 270 268 259 226 233 302
263 190 246 117 57 117 126 141 69 81 74 84 114 114 141 127 124 135 134 129 134 115 132 148 170 184 191 190 190 188 192 207 202 229 240 209 286 291 291 347 331 286 256 242 241 242 220 234 252
315 86 52 108 120 58 139 80 72 42 0 336 125 132 124 123 135 132 125 96 34 42 138 143 176 184 199 186 165 138 263 214 199 213 274 26 352 303 13 29 8 317 271 239 218 202 209 222 230
277 102 195 151 118 83 326 85 57 70 328 352 338 101 113 135 140 124 58 35 14 352 317 88 53 110 217 162 166 183 191 198 187 206 86 88 79 273 236 100 125 246 261 264 229 201 201 214 230
240 264 102 79 131 126 55 66 72 112 175 309 333 102 119 93 56 39 51 42 108 247 267 34 41 18 4 147 171 178 165 154 181 246 277 239 189 234 253 219 205 229 252 167 252 206 202 219 230
320 37 34 63 88 81 125 80 253 132 155 196 218 129 132 102 91 90 146 194 159 237 24 31 53 35 27 5 332 106 163 185 238 230 244 264 256 240 231 240 237 227 188 180 203 210 226 217 228
285 79 342 61 90 83 51 357 253 146 166 187 213 117 66 77 95 122 187 211 206 58 30 43 59 38 44 341 9 308 162 164 208 226 242 220 255 294 275 298 326 322 141 153 195 204 231 227 238
341 15 348 89 85 100 134 211 228 55 117 168 90 90 104 97 108 102 141 49 59 41 41 37 56 44 39 12 346 333 296 160 206 202 232 274 7 317 313 320 307 263 158 175 238 250 215 251 202
53 82 343 84 96 83 71 23 53 79 93 84 79 77 83 73 74 64 53 45 40 33 29 34 48 48 14 13 349 302 295 285 300 13 24 13 327 348 329 5 19 307 356 355 30 274 269 197 214
36 42 353 12 111 155 240 61 72 72 88 84 78 83 85 84 74 72 66 59 42 46 32 12 21 29 11 359 324 311 325 22 16 47 55 252 352 359 3 357 302 318 340 20 289 359 1 25 360
56 72 163 266 119 144 59 126 306 113 107 99 105 83 81 67 56 79 71 69 61 45 37 36 27 15 359 344 330 336 54 66 97 45 20 22 30 22 5 31 13 347 343 353 25 31 158 278 142
223 123 268 214 124 148 130 119 258 119 117 127 110 120 104 87 64 79 76 61 47 47 36 33 29 9 352 358 358 351 9 45 64 65 56 43 36 22 5 8 350 344 1 354 359 345 1 327 310
217 145 210 102 172 94 110 117 114 129 141 117 90 61 73 71 84 73 66 62 53 48 39 32 37 14 355 10 7 356 348 6 24 40 39 32 32 25 17 1 2 360 346 332 334 327 317 277 276
51 64 41 342 69 132 115 98 65 45 235 105 112 109 109 98 84 84 74 67 62 54 52 41 35 27 11 12 14 0 349 3 36 56 47 38 30 19 14 4 351 6 351 341 5 1 344 339 337
12 90 132 244 315 102 117 43 24 1 336 74 115 127 117 111 88 71 67 80 81 75 65 52 36 39 28 1 19 354 351 360 9 37 45 23 32 24 24 18 11 359 344 5 14 12 351 326 352
354 323 339 299 99 61 52 10 66 279 332 336 35 58 84 78 86 94 87 77 63 86 75 60 51 32 38 13 19 3 358 1 13 356 16 339 39 44 51 53 15 350 0 1 360 358 346 326 321
349 18 342 29 62 52 16 234 218 91 93 262 94 75 94 108 113 93 82 61 73 63 79 69 61 45 38 32 28 14 358 7 28 352 356 342 33 38 54 28 14 340 336 353 340 328 319 330 324
358 4 65 88 93 125 236 241 135 176 192 278 112 113 108 111 88 71 55 65 60 50 49 75 71 54 39 35 39 24 7 360 16 352 0 5 43 54 23 18 359 357 343 338 324 311 307 309 306
341 76 284 53 173 159 247 207 321 197 176 231 123 99 90 99 79 78 61 56 56 53 29 61 66 49 28 35 37 38 13 9 29 7 7 356 5 358 19 2 349 352 354 341 346 334 331 327 324
318 306 306 217 221 290 284 172 157 197 192 179 116 109 76 63 62 54 62 35 52 42 43 19 73 46 28 35 57 36 18 6 16 358 2 344 352 353 354 352 355 351 359 357 348 332 341 343 338
298 336 356 336 320 69 41 36 352 78 88 93 88 94 69 55 64 48 68 43 24 16 57 36 68 48 23 53 58 48 25 2 5 349 345 346 351 347 3 350 3 5 355 353 352 343 349 350 336
342 335 339 292 297 105 129 324 121 296 133 120 107 97 71 47 83 58 71 56 21 20 70 38 76 59 39 79 77 49 27 2 349 340 338 358 358 355 6 11 357 10 2 355 355 349 354 344 340
282 337 339 336 327 343 175 135 189 206 150 115 141 119 95 18 68 64 72 67 32 23 65 47 26 45 34 82 46 51 17 354 352 357 357 14 3 16 14 6 13 3 353 356 355 353 352 357 349
322 336 9 323 329 324 348 74 106 156 140 132 100 95 110 72 48 58 71 70 45 32 25 47 26 27 30 88 62 36 7 354 359 11 6 14 16 20 0 16 1 5 355 358 357 4 6 11 6
358 14 30 358 350 3 347 310 9 107 112 105 97 86 65 69 47 60 62 64 57 45 27 49 38 19 27 98 69 55 0 355 5 359 24 15 12 18 10 357 24 356 12 355 5 10 11 23 18